FW2831 Henry Island CA current weather conditions

sailwx.info

Wind from 123 at 7 knots gusting 12

Air temperature 11.7° C
Dewpoint 10.4° C

Last reported at 2020-Jul-06 04:58 UTC.
Time now 2020-Jul-06 06:06 UTC

Location: N 45°59' W 061°36'.
View on Google Maps.

See reports from other nearby stations

  
Tides and Currents Weather Stations Pressure Air Temp Water Temp Dewpoint Dewpoint Depression Visibility Wind Speed Wind Dir Waves Ship Positions
date/time (UTC)wind fromknots sea level pressurealtimeterstation pressurevisibilityair tempwater tempwave heightnotes
2020-Jul-06 04:58 123 7 gusting 12 11.7
2020-Jul-06 04:53 128 8 gusting 13 11.7
2020-Jul-06 04:43 125 7 gusting 15 11.7
2020-Jul-06 04:38 139 9 gusting 16 11.7
2020-Jul-06 04:28 133 9 gusting 17 11.7
2020-Jul-06 04:23 142 11 gusting 18 11.7
2020-Jul-06 04:18 136 12 gusting 17 11.7
2020-Jul-06 04:08 132 13 gusting 19 12.2
2020-Jul-06 04:03 119 13 gusting 21 12.2
2020-Jul-06 03:53 143 11 gusting 21 12.2
2020-Jul-06 03:48 153 15 gusting 21 12.2
2020-Jul-06 03:38 150 15 gusting 23 12.2
2020-Jul-06 03:33 149 16 gusting 23 12.2
2020-Jul-06 03:28 148 14 gusting 21 12.2
2020-Jul-06 03:18 168 13 gusting 20 12.2
2020-Jul-06 03:08 156 13 gusting 19 12.2
2020-Jul-06 02:59 155 13 gusting 19 12.2
2020-Jul-06 02:53 163 13 gusting 19 12.2
2020-Jul-06 02:43 161 11 gusting 18 12.2
2020-Jul-06 02:38 150 11 gusting 18 12.2
2020-Jul-06 02:33 125 11 gusting 18 12.2
2020-Jul-06 02:23 136 10 gusting 17 12.2
2020-Jul-06 02:18 165 12 gusting 19 12.2
2020-Jul-06 02:13 140 13 gusting 19 12.2
2020-Jul-06 02:08 140 12 gusting 19 12.8
2020-Jul-06 01:58 126 13 gusting 18 12.8
2020-Jul-06 01:48 142 13 gusting 18 12.8
2020-Jul-06 01:43 138 12 gusting 18 12.8
2020-Jul-06 01:33 130 11 gusting 18 12.8
2020-Jul-06 01:23 139 13 gusting 17 12.8
2020-Jul-06 01:13 144 13 gusting 17 12.8
2020-Jul-06 01:08 145 10 gusting 16 12.8
2020-Jul-06 00:58 122 9 gusting 16 13.3
2020-Jul-06 00:48 138 12 gusting 18 13.3
2020-Jul-06 00:43 137 13 gusting 18 13.3
2020-Jul-06 00:33 140 13 gusting 19 13.3
2020-Jul-06 00:23 132 14 gusting 20 13.3
2020-Jul-06 00:18 142 14 gusting 20 13.3
2020-Jul-06 00:08 153 13 gusting 18 13.9
2020-Jul-05 23:58 135 13 gusting 19 13.9
2020-Jul-05 23:48 144 13 gusting 19 13.9
2020-Jul-05 23:43 137 13 gusting 19 13.9
2020-Jul-05 23:33 144 13 gusting 18 14.4
2020-Jul-05 23:23 146 12 gusting 18 14.4
2020-Jul-05 23:13 143 13 gusting 19 14.4
2020-Jul-05 23:03 126 11 gusting 20 15.0
2020-Jul-05 22:53 149 16 gusting 20 15.0
2020-Jul-05 22:43 150 13 gusting 19 15.6
2020-Jul-05 22:33 162 13 gusting 20 15.6
2020-Jul-05 22:23 146 16 gusting 21 16.1
2020-Jul-05 22:18 162 13 gusting 21 16.1
2020-Jul-05 22:08 157 15 gusting 23 16.7
2020-Jul-05 21:58 171 16 gusting 22 16.7
2020-Jul-05 21:53 154 14 gusting 22 17.2
2020-Jul-05 21:43 157 14 gusting 21 17.2
2020-Jul-05 21:38 155 14 gusting 20 17.2
2020-Jul-05 21:28 130 13 gusting 21 17.8
2020-Jul-05 21:18 150 14 gusting 20 17.8
2020-Jul-05 21:13 155 13 gusting 20 17.8
2020-Jul-05 21:08 146 13 gusting 19 18.3
2020-Jul-05 21:03 158 14 gusting 19 18.3
2020-Jul-05 20:53 156 13 gusting 19 18.3
2020-Jul-05 20:38 148 12 gusting 17 18.9
2020-Jul-05 20:28 164 10 gusting 16 19.4
2020-Jul-05 20:18 153 9 gusting 13 19.4
2020-Jul-05 20:13 148 9 gusting 13 20.0
2020-Jul-05 20:03 143 6 gusting 10 20.0
2020-Jul-05 19:58 134 7 gusting 13 20.0
2020-Jul-05 19:53 145 8 gusting 13 20.0
2020-Jul-05 19:43 140 9 gusting 13 19.4
2020-Jul-05 19:38 163 9 gusting 13 19.4
2020-Jul-05 19:33 154 8 gusting 12 19.4
2020-Jul-05 19:23 136 7 gusting 13 20.0
2020-Jul-05 19:13 170 7 gusting 16 20.0
2020-Jul-05 19:03 142 10 gusting 17 19.4
2020-Jul-05 18:53 141 11 gusting 17 19.4
2020-Jul-05 18:48 147 13 gusting 17 18.9
2020-Jul-05 18:43 160 11 gusting 15 19.4
2020-Jul-05 18:33 153 10 gusting 15 18.9
2020-Jul-05 18:23 180 11 gusting 19 18.9
2020-Jul-05 18:18 182 10 gusting 19 18.9
2020-Jul-05 18:08 197 12 gusting 18 18.9
2020-Jul-05 17:58 181 10 gusting 13 19.4
2020-Jul-05 17:48 168 8 gusting 15 18.9
2020-Jul-05 17:43 192 10 gusting 15 18.9
2020-Jul-05 17:38 170 10 gusting 15 18.3
2020-Jul-05 17:28 209 11 gusting 16 18.9
2020-Jul-05 17:13 197 10 gusting 17 18.9
2020-Jul-05 17:08 163 9 gusting 17 18.9
2020-Jul-05 17:03 169 11 gusting 17 18.9
2020-Jul-05 16:53 211 9 gusting 17 18.9
2020-Jul-05 16:43 173 13 gusting 18 18.3
2020-Jul-05 16:38 192 10 gusting 18 18.3
2020-Jul-05 16:28 207 12 gusting 18 18.3
2020-Jul-05 16:18 164 11 gusting 18 17.8
2020-Jul-05 16:13 178 11 gusting 17 17.8
2020-Jul-05 16:03 182 10 gusting 17 17.2
2020-Jul-05 15:53 221 10 gusting 15 17.2
2020-Jul-05 15:43 157 9 gusting 18 17.2
2020-Jul-05 15:38 174 8 gusting 15 17.2
2020-Jul-05 15:28 178 8 gusting 19 17.2
2020-Jul-05 15:23 169 13 gusting 19 16.7
2020-Jul-05 15:18 179 11 gusting 19 16.7
2020-Jul-05 15:13 182 10 gusting 19 16.7
2020-Jul-05 15:03 178 13 gusting 19 16.1
2020-Jul-05 14:58 192 12 gusting 19 16.7
2020-Jul-05 14:48 165 13 gusting 18 16.1
2020-Jul-05 14:38 167 11 gusting 19 16.1
2020-Jul-05 14:33 165 10 gusting 19 15.6
2020-Jul-05 14:23 165 11 gusting 19 15.6
2020-Jul-05 14:18 193 13 gusting 19 15.6
2020-Jul-05 14:08 180 13 gusting 19 15.0
2020-Jul-05 14:03 196 13 gusting 19 15.0
2020-Jul-05 13:53 171 11 gusting 17 15.6
2020-Jul-05 13:48 188 11 gusting 18 15.6
2020-Jul-05 13:38 155 12 gusting 19 15.0
2020-Jul-05 13:33 184 12 gusting 19 15.0
2020-Jul-05 13:23 190 12 gusting 17 14.4
2020-Jul-05 13:13 173 11 gusting 17 14.4
2020-Jul-05 13:03 171 10 gusting 17 14.4
2020-Jul-05 12:53 207 9 gusting 18 14.4
2020-Jul-05 12:48 206 9 gusting 13 14.4
2020-Jul-05 12:43 210 8 gusting 13 13.9
2020-Jul-05 12:33 171 9 gusting 17 14.4
2020-Jul-05 12:28 194 10 gusting 17 14.4
2020-Jul-05 12:23 189 9 gusting 13 14.4
2020-Jul-05 12:13 182 7 gusting 13 13.9
2020-Jul-05 12:03 188 7 gusting 12 13.9
2020-Jul-05 11:58 173 6 gusting 10 13.9
2020-Jul-05 11:48 171 6 gusting 10 13.9
2020-Jul-05 11:43 161 6 gusting 10 13.9
2020-Jul-05 11:38 138 6 gusting 9 13.9
2020-Jul-05 11:33 136 5 gusting 11 13.9
2020-Jul-05 11:23 138 6 gusting 10 13.3
2020-Jul-05 11:13 125 6 gusting 12 12.8
2020-Jul-05 11:03 123 8 gusting 13 12.2
2020-Jul-05 10:53 149 8 gusting 13 11.7
2020-Jul-05 10:43 121 9 gusting 13 11.1
2020-Jul-05 10:38 114 9 gusting 15 11.7
2020-Jul-05 10:28 117 9 gusting 15 11.1
2020-Jul-05 10:23 128 11 gusting 15 11.1
2020-Jul-05 10:13 132 12 gusting 16 10.6
2020-Jul-05 10:08 124 10 gusting 15 10.6
2020-Jul-05 09:58 127 8 gusting 13 10.6
2020-Jul-05 09:48 126 8 gusting 15 10.6
2020-Jul-05 09:38 142 10 gusting 17 10.6
2020-Jul-05 09:28 119 11 gusting 17 10.6
2020-Jul-05 09:23 133 11 gusting 16 10.6
2020-Jul-05 09:18 140 12 gusting 16 10.6
2020-Jul-05 09:08 126 10 gusting 15 10.6
2020-Jul-05 08:58 134 10 gusting 15 10.6
2020-Jul-05 08:53 136 10 gusting 16 10.6
2020-Jul-05 08:43 144 11 gusting 17 10.6
2020-Jul-05 08:33 142 9 gusting 15 10.6
2020-Jul-05 08:23 132 10 gusting 15 10.6
2020-Jul-05 08:13 133 7 gusting 13 10.6
2020-Jul-05 08:08 150 8 gusting 15 10.6
2020-Jul-05 07:58 129 7 gusting 13 10.6
2020-Jul-05 07:48 128 10 gusting 16 10.6
2020-Jul-05 07:43 131 10 gusting 15 10.6
2020-Jul-05 07:33 144 8 gusting 15 10.6
2020-Jul-05 07:23 140 9 gusting 15 10.6
2020-Jul-05 07:18 127 9 gusting 13 10.6
2020-Jul-05 07:13 140 9 gusting 13 10.6
2020-Jul-05 07:08 128 8 gusting 13 10.6
2020-Jul-05 06:58 144 9 gusting 15 10.6
2020-Jul-05 06:48 153 8 gusting 13 10.6
2020-Jul-05 06:43 144 8 gusting 13 10.6
2020-Jul-05 06:33 143 8 gusting 13 10.6
2020-Jul-05 06:23 150 11 gusting 15 10.6
2020-Jul-05 06:18 136 9 gusting 16 10.6
2020-Jul-05 06:08 139 9 gusting 18 10.6
2020-Jul-05 05:58 155 10 gusting 16 11.1
2020-Jul-05 05:48 125 12 gusting 18 11.1
2020-Jul-05 05:38 138 11 gusting 16 11.1
2020-Jul-05 05:28 130 12 gusting 17 11.1
2020-Jul-05 05:23 137 10 gusting 17 11.1
2020-Jul-05 05:13 161 11 gusting 18 11.1
2020-Jul-05 05:03 143 10 gusting 16 11.1
2020-Jul-05 04:58 133 11 gusting 17 11.1
2020-Jul-05 04:48 141 10 gusting 13 11.1
2020-Jul-05 04:38 142 9 gusting 15 11.7
2020-Jul-05 04:23 154 10 gusting 15 11.7
2020-Jul-05 04:13 118 9 gusting 13 11.7
2020-Jul-05 04:03 123 8 gusting 13 11.7
2020-Jul-05 03:53 129 9 gusting 15 11.7
2020-Jul-05 03:43 148 11 gusting 15 11.7
2020-Jul-05 03:33 137 11 gusting 16 11.7
2020-Jul-05 03:23 139 8 gusting 15 11.7
2020-Jul-05 03:13 141 10 gusting 13 11.7
2020-Jul-05 03:08 118 9 gusting 15 11.7
2020-Jul-05 02:58 140 11 gusting 16 11.7
2020-Jul-05 02:53 126 10 gusting 16 11.7
2020-Jul-05 02:48 131 10 gusting 17 11.7
2020-Jul-05 02:38 147 14 gusting 18 11.7
2020-Jul-05 02:28 141 12 gusting 18 11.7
2020-Jul-05 02:18 166 10 gusting 19 11.7
2020-Jul-05 02:08 117 11 gusting 16 12.2
2020-Jul-05 01:58 133 11 gusting 18 12.2
2020-Jul-05 01:48 138 13 gusting 19 12.2
2020-Jul-05 01:33 139 10 gusting 20 12.2
2020-Jul-05 01:28 150 13 gusting 19 12.2
2020-Jul-05 01:18 150 13 gusting 19 12.2
2020-Jul-05 01:03 156 12 gusting 18 12.8
2020-Jul-05 00:53 144 12 gusting 19 12.8
2020-Jul-05 00:43 132 10 gusting 17 13.3
2020-Jul-05 00:38 144 12 gusting 19 13.3
2020-Jul-05 00:33 130 13 gusting 19 13.3
2020-Jul-05 00:23 140 11 gusting 19 13.3
2020-Jul-05 00:13 143 13 gusting 19 13.3
2020-Jul-05 00:03 128 11 gusting 17 13.3
2020-Jul-04 23:58 132 11 gusting 17 13.3
2020-Jul-04 23:48 133 13 gusting 18 13.3
2020-Jul-04 23:43 128 13 gusting 19 13.3
2020-Jul-04 23:33 123 14 gusting 18 13.9
2020-Jul-04 23:23 130 13 gusting 18 13.9
2020-Jul-04 23:18 119 11 gusting 18 13.9
2020-Jul-04 23:08 125 13 gusting 18 14.4
2020-Jul-04 23:03 113 13 gusting 18 14.4
2020-Jul-04 22:53 109 10 gusting 16 15.0
2020-Jul-04 22:43 117 9 gusting 13 15.0
2020-Jul-04 22:38 128 10 gusting 13 15.0
2020-Jul-04 22:33 115 8 gusting 19 15.0
2020-Jul-04 22:23 138 12 gusting 18 15.0
2020-Jul-04 22:13 150 12 gusting 19 15.0
2020-Jul-04 22:08 159 13 gusting 19 15.0
2020-Jul-04 21:58 153 13 gusting 19 15.0
2020-Jul-04 21:53 151 13 gusting 18 15.0
2020-Jul-04 21:43 148 10 gusting 17 15.0
2020-Jul-04 21:38 153 13 gusting 18 15.6
2020-Jul-04 21:28 172 11 gusting 19 15.6
2020-Jul-04 21:18 174 12 gusting 19 15.6
2020-Jul-04 21:08 175 9 gusting 19 16.1
2020-Jul-04 20:58 175 12 gusting 19 16.1
2020-Jul-04 20:48 153 13 gusting 20 16.7
2020-Jul-04 20:38 165 14 gusting 20 16.7
2020-Jul-04 20:28 163 12 gusting 19 16.7
2020-Jul-04 20:23 163 13 gusting 19 16.7
2020-Jul-04 20:13 134 12 gusting 22 17.2
2020-Jul-04 20:03 174 15 gusting 23 17.2
2020-Jul-04 19:58 164 16 gusting 24 17.2
2020-Jul-04 19:53 182 13 gusting 24 17.2
2020-Jul-04 19:43 180 13 gusting 22 17.2
2020-Jul-04 19:38 174 15 gusting 24 16.7
2020-Jul-04 19:33 168 14 gusting 24 16.7
2020-Jul-04 19:23 194 13 gusting 23 16.7
2020-Jul-04 19:18 170 15 gusting 23 16.7
2020-Jul-04 19:13 171 13 gusting 23 16.7
2020-Jul-04 19:03 171 14 gusting 25 17.8
2020-Jul-04 18:54 186 13 gusting 23 17.2
2020-Jul-04 18:43 161 13 gusting 25 17.8
2020-Jul-04 18:33 176 18 gusting 26 17.8
2020-Jul-04 18:28 192 15 gusting 26 17.8
2020-Jul-04 18:23 175 16 gusting 25 17.8
2020-Jul-04 17:53 173 13 gusting 23 17.8
2020-Jul-04 17:43 164 13 gusting 20 17.2
2020-Jul-04 17:33 168 15 gusting 22 17.8
2020-Jul-04 17:23 204 13 gusting 22 17.8
2020-Jul-04 17:18 178 15 gusting 22 18.3
2020-Jul-04 17:08 142 15 gusting 22 18.3
2020-Jul-04 16:58 159 12 gusting 19 17.8
2020-Jul-04 16:48 170 13 gusting 21 17.8
2020-Jul-04 16:38 179 13 gusting 20 17.8
2020-Jul-04 16:33 196 10 gusting 22 17.8
2020-Jul-04 16:23 180 13 gusting 23 18.3
2020-Jul-04 16:18 141 15 gusting 24 18.3
2020-Jul-04 16:08 150 15 gusting 21 17.8
2020-Jul-04 15:58 161 15 gusting 23 16.7
2020-Jul-04 15:53 162 17 gusting 23 17.2
2020-Jul-04 15:43 150 15 gusting 20 17.8
2020-Jul-04 15:38 185 13 gusting 19 17.8
2020-Jul-04 15:33 146 11 gusting 17 17.2
2020-Jul-04 15:24 171 7 gusting 15 16.7
2020-Jul-04 15:13 150 11 gusting 16 16.7
2020-Jul-04 15:08 140 8 gusting 13 16.7
2020-Jul-04 14:58 184 6 gusting 10 16.1
2020-Jul-04 14:53 173 6 gusting 12 16.7
2020-Jul-04 14:43 198 7 gusting 11 17.2
2020-Jul-04 14:38 148 6 gusting 12 17.2
2020-Jul-04 14:33 140 8 gusting 12 16.7
2020-Jul-04 14:23 111 5 gusting 12 16.1
2020-Jul-04 14:18 146 8 gusting 12 15.6
2020-Jul-04 14:08 177 8 gusting 12 15.6
2020-Jul-04 14:03 157 8 gusting 12 15.6
2020-Jul-04 13:58 150 6 gusting 12 15.6
2020-Jul-04 13:48 169 6 gusting 13 15.6
2020-Jul-04 13:38 168 8 gusting 13 15.6
2020-Jul-04 13:28 148 7 gusting 13 16.1
2020-Jul-04 13:23 147 6 gusting 12 15.6
2020-Jul-04 13:13 148 9 gusting 17 15.0
2020-Jul-04 13:03 149 12 gusting 16 14.4
2020-Jul-04 12:58 142 11 gusting 17 14.4
2020-Jul-04 12:48 156 9 gusting 15 14.4
2020-Jul-04 12:43 146 10 gusting 17 14.4
2020-Jul-04 12:38 133 8 gusting 17 13.9
2020-Jul-04 12:28 139 10 gusting 13 13.9
2020-Jul-04 12:18 161 7 gusting 12 13.3
2020-Jul-04 12:13 161 7 gusting 11 13.3
2020-Jul-04 12:08 161 6 gusting 10 13.3
2020-Jul-04 12:03 161 6 gusting 11 13.3
2020-Jul-04 11:58 139 6 gusting 11 13.3
2020-Jul-04 11:48 148 6 gusting 11 13.3
2020-Jul-04 11:38 142 6 gusting 13 12.8
2020-Jul-04 11:33 153 8 gusting 13 12.8
2020-Jul-04 11:23 147 8 gusting 13 12.8
2020-Jul-04 11:18 132 9 gusting 13 12.8
2020-Jul-04 11:08 138 8 gusting 13 12.8
2020-Jul-04 10:58 121 9 gusting 16 12.2
2020-Jul-04 10:53 119 9 gusting 17 12.2
2020-Jul-04 10:48 141 9 gusting 17 12.2
2020-Jul-04 10:38 112 10 gusting 17 12.2
2020-Jul-04 10:28 142 11 gusting 18 12.2
2020-Jul-04 10:13 149 10 gusting 16 11.7
2020-Jul-04 10:03 145 12 gusting 18 11.7
2020-Jul-04 09:53 131 9 gusting 16 11.7
2020-Jul-04 09:48 138 10 gusting 16 11.7
2020-Jul-04 09:38 139 9 gusting 17 11.7
2020-Jul-04 09:28 113 9 gusting 17 11.7
2020-Jul-04 09:23 134 10 gusting 15 11.7
2020-Jul-04 09:13 150 9 gusting 18 11.7
2020-Jul-04 09:08 133 12 gusting 18 11.7
2020-Jul-04 08:58 137 8 gusting 13 11.7
2020-Jul-04 08:53 146 9 gusting 13 11.7
2020-Jul-04 08:48 121 9 gusting 15 11.7
2020-Jul-04 08:43 129 10 gusting 15 11.7
2020-Jul-04 08:33 123 9 gusting 13 11.7
2020-Jul-04 08:23 134 10 gusting 15 11.7
2020-Jul-04 08:13 114 8 gusting 15 11.7
2020-Jul-04 08:08 132 10 gusting 15 11.7
2020-Jul-04 07:53 120 10 gusting 18 11.7
2020-Jul-04 07:48 138 11 gusting 18 12.2
2020-Jul-04 07:38 133 13 gusting 19 12.2
2020-Jul-04 07:28 156 13 gusting 19 12.2
2020-Jul-04 07:18 144 10 gusting 19 12.2
2020-Jul-04 07:13 144 11 gusting 19 12.2
2020-Jul-04 07:03 151 13 gusting 19 12.2
2020-Jul-04 06:53 115 13 gusting 21 12.2
2020-Jul-04 06:48 121 13 gusting 21 12.2
2020-Jul-04 06:39 148 17 gusting 24 12.2
2020-Jul-04 06:28 139 16 gusting 21 12.2
2020-Jul-04 06:23 142 17 gusting 21 12.2
2020-Jul-04 06:19 136 13 gusting 22 12.2
2020-Jul-04 06:08 136 14 gusting 19 12.2
2020-Jul-04 06:03 139 15 gusting 20 12.2